| time (UTC) | temp F | wind direction | speed MPH | gust MPH | rain 1hr in | rain 24hr in | rain mn in | humidity % | barometer mb |
| 20260503184219 | 59 | 291 | 3.0 | 10.0 | 0.00 | 0.00 | 0.00 | 37 | 1015.5 |
| 20260503183720 | 59 | 313 | 2.0 | 7.0 | 0.00 | 0.00 | 0.00 | 38 | 1015.5 |
| 20260503183221 | 58 | 276 | 2.0 | 7.0 | 0.00 | 0.00 | 0.00 | 37 | 1015.6 |
| 20260503182720 | 58 | 277 | 0.0 | 5.0 | 0.00 | 0.00 | 0.00 | 40 | 1015.6 |
| 20260503182221 | 58 | 298 | 0.0 | 6.0 | 0.00 | 0.00 | 0.00 | 43 | 1015.7 |
| 20260503181720 | 58 | 293 | 1.0 | 6.0 | 0.00 | 0.00 | 0.00 | 37 | 1015.7 |
| 20260503181221 | 57 | 295 | 1.0 | 7.0 | 0.00 | 0.00 | 0.00 | 40 | 1015.8 |
| 20260503180720 | 58 | 322 | 2.0 | 7.0 | 0.00 | 0.00 | 0.00 | 38 | 1015.7 |
| 20260503180220 | 58 | 333 | 2.0 | 7.0 | 0.00 | 0.00 | 0.00 | 38 | 1015.8 |
| 20260503175720 | 59 | 308 | 1.0 | 5.0 | 0.00 | 0.00 | 0.00 | 38 | 1015.9 |
| 20260503175220 | 58 | 315 | 1.0 | 7.0 | 0.00 | 0.00 | 0.00 | 43 | 1015.9 |
| 20260503174720 | 58 | 305 | 1.0 | 7.0 | 0.00 | 0.00 | 0.00 | 40 | 1015.9 |
| 20260503174220 | 57 | 325 | 0.0 | 10.0 | 0.00 | 0.00 | 0.00 | 41 | 1016.1 |
| 20260503173720 | 57 | 318 | 0.0 | 10.0 | 0.00 | 0.00 | 0.00 | 39 | 1015.9 |
| 20260503173220 | 57 | 321 | 2.0 | 7.0 | 0.00 | 0.00 | 0.00 | 43 | 1016.0 |
| 20260503172723 | 57 | 270 | 1.0 | 5.0 | 0.00 | 0.00 | 0.00 | 41 | 1015.9 |
| 20260503172220 | 57 | 346 | 2.0 | 5.0 | 0.00 | 0.00 | 0.00 | 40 | 1016.0 |
| 20260503171720 | 56 | 323 | 1.0 | 12.0 | 0.00 | 0.00 | 0.00 | 42 | 1016.1 |
| 20260503171219 | 55 | 318 | 5.0 | 12.0 | 0.00 | 0.00 | 0.00 | 51 | 1016.4 |
| 20260503170720 | 55 | 323 | 2.0 | 5.0 | 0.00 | 0.00 | 0.00 | 42 | 1016.4 |
| 20260503170220 | 55 | 328 | 1.0 | 7.0 | 0.00 | 0.00 | 0.00 | 41 | 1016.4 |
| 20260503150717 | 53 | 336 | 2.0 | 10.0 | 0.00 | 0.00 | 0.00 | 48 | 1016.9 |
| 20260503150216 | 52 | 320 | 3.0 | 10.0 | 0.00 | 0.00 | 0.00 | 44 | 1016.8 |
| 20260503140220 | 50 | 326 | 2.0 | 8.0 | 0.00 | 0.00 | 0.00 | 46 | 1016.9 |
| 20260503131217 | 46 | 304 | 2.0 | 5.0 | 0.00 | 0.00 | 0.00 | 58 | 1016.9 |
| 20260503130717 | 45 | 288 | 1.0 | 5.0 | 0.00 | 0.00 | 0.00 | 58 | 1016.9 |
| 20260503130218 | 45 | 304 | 2.0 | 5.0 | 0.00 | 0.00 | 0.00 | 61 | 1017.0 |
| 20260503120220 | 41 | 309 | 1.0 | 5.0 | 0.00 | 0.00 | 0.00 | 69 | 1016.7 |
| 20260503110716 | 38 | 323 | 0.0 | 0.0 | 0.00 | 0.00 | 0.00 | 77 | 1016.0 |
| 20260503110214 | 39 | 323 | 0.0 | 0.0 | 0.00 | 0.00 | 0.00 | 77 | 1016.0 |
| 20260503100218 | 39 | 323 | 0.0 | 2.0 | 0.00 | 0.00 | 0.00 | 73 | 1015.0 |
| 20260503090220 | 40 | 323 | 0.0 | 2.0 | 0.00 | 0.00 | 0.00 | 76 | 1014.6 |
| 20260503081217 | 40 | 323 | 0.0 | 2.0 | 0.00 | 0.00 | 0.00 | 75 | 1014.3 |
| 20260503080717 | 40 | 323 | 0.0 | 1.0 | 0.00 | 0.00 | 0.00 | 75 | 1014.3 |
| 20260503080218 | 40 | 323 | 0.0 | 1.0 | 0.00 | 0.00 | 0.00 | 75 | 1014.1 |
| 20260503072718 | 41 | 323 | 0.0 | 1.0 | 0.00 | 0.00 | 0.00 | 74 | 1013.8 |
| 20260503072217 | 41 | 323 | 0.0 | 1.0 | 0.00 | 0.00 | 0.00 | 74 | 1013.8 |
| 20260503071718 | 41 | 323 | 0.0 | 1.0 | 0.00 | 0.00 | 0.00 | 74 | 1013.8 |
| 20260503071218 | 41 | 323 | 0.0 | 2.0 | 0.00 | 0.00 | 0.00 | 74 | 1013.7 |
| 20260503070718 | 41 | 323 | 0.0 | 3.0 | 0.00 | 0.00 | 0.00 | 74 | 1013.7 |
| 20260503070217 | 41 | 323 | 1.0 | 3.0 | 0.00 | 0.00 | 0.00 | 74 | 1013.6 |
| 20260503060215 | 42 | 323 | 0.0 | 0.0 | 0.00 | 0.00 | 0.00 | 71 | 1013.6 |
| 20260503054715 | 43 | 323 | 0.0 | 2.0 | 0.00 | 0.00 | 0.00 | 71 | 1013.6 |
| 20260503054214 | 43 | 323 | 0.0 | 1.0 | 0.00 | 0.00 | 0.00 | 71 | 1013.5 |
| 20260503053714 | 43 | 323 | 0.0 | 1.0 | 0.00 | 0.00 | 0.00 | 70 | 1013.5 |
| 20260503053214 | 43 | 323 | 0.0 | 0.0 | 0.00 | 0.00 | 0.00 | 71 | 1013.5 |
| 20260503052715 | 43 | 323 | 0.0 | 0.0 | 0.00 | 0.00 | 0.00 | 71 | 1013.5 |
| 20260503052218 | 43 | 323 | 0.0 | 0.0 | 0.00 | 0.00 | 0.00 | 70 | 1013.7 |
| 20260503051718 | 43 | 323 | 0.0 | 1.0 | 0.00 | 0.00 | 0.00 | 71 | 1013.6 |
| 20260503051219 | 43 | 323 | 0.0 | 1.0 | 0.00 | 0.00 | 0.00 | 71 | 1013.7 |
| 20260503050718 | 43 | 323 | 0.0 | 0.0 | 0.00 | 0.00 | 0.00 | 71 | 1013.7 |
| 20260503050217 | 43 | 323 | 0.0 | 0.0 | 0.00 | 0.00 | 0.00 | 72 | 1013.8 |
| 20260503045717 | 44 | 323 | 0.0 | 0.0 | 0.00 | 0.00 | 0.00 | 72 | 1013.8 |
| 20260503045217 | 44 | 323 | 0.0 | 0.0 | 0.00 | 0.00 | 0.00 | 70 | 1013.8 |
| 20260503044719 | 44 | 323 | 0.0 | 0.0 | 0.00 | 0.00 | 0.00 | 70 | 1013.8 |
| 20260503044218 | 44 | 323 | 0.0 | 0.0 | 0.00 | 0.00 | 0.00 | 71 | 1013.8 |
| 20260503043717 | 45 | 323 | 0.0 | 0.0 | 0.00 | 0.00 | 0.00 | 70 | 1013.9 |
| 20260503043218 | 45 | 323 | 0.0 | 0.0 | 0.00 | 0.00 | 0.00 | 71 | 1013.9 |
| 20260503042717 | 45 | 323 | 0.0 | 0.0 | 0.00 | 0.00 | 0.00 | 71 | 1013.9 |
| 20260503042217 | 45 | 323 | 0.0 | 0.0 | 0.00 | 0.00 | 0.00 | 71 | 1014.0 |
| 20260503041717 | 46 | 323 | 0.0 | 0.0 | 0.00 | 0.00 | 0.00 | 70 | 1013.9 |
| 20260503041217 | 46 | 323 | 0.0 | 0.0 | 0.00 | 0.00 | 0.00 | 66 | 1013.9 |
| 20260503040721 | 46 | 323 | 0.0 | 0.0 | 0.00 | 0.00 | 0.00 | 66 | 1014.1 |
| 20260503040218 | 46 | 323 | 0.0 | 0.0 | 0.00 | 0.00 | 0.00 | 65 | 1014.1 |
| 20260503035717 | 46 | 323 | 0.0 | 0.0 | 0.00 | 0.00 | 0.00 | 64 | 1014.0 |
| 20260503035219 | 46 | 323 | 0.0 | 0.0 | 0.00 | 0.00 | 0.00 | 66 | 1014.1 |
| 20260503034718 | 47 | 323 | 0.0 | 2.0 | 0.00 | 0.00 | 0.00 | 63 | 1014.1 |
| 20260503034217 | 47 | 323 | 0.0 | 2.0 | 0.00 | 0.00 | 0.00 | 64 | 1014.1 |
| 20260503033717 | 47 | 323 | 0.0 | 2.0 | 0.00 | 0.00 | 0.00 | 63 | 1014.2 |
| 20260503033217 | 47 | 323 | 0.0 | 2.0 | 0.00 | 0.00 | 0.00 | 63 | 1014.1 |
| 20260503032717 | 47 | 323 | 0.0 | 2.0 | 0.00 | 0.00 | 0.00 | 63 | 1014.1 |
| 20260503032217 | 48 | 323 | 0.0 | 2.0 | 0.00 | 0.00 | 0.00 | 63 | 1014.0 |
| 20260503031719 | 48 | 323 | 0.0 | 0.0 | 0.00 | 0.00 | 0.00 | 63 | 1014.0 |
| 20260503031218 | 48 | 323 | 0.0 | 0.0 | 0.00 | 0.00 | 0.00 | 63 | 1014.1 |
| 20260503030717 | 48 | 323 | 0.0 | 0.0 | 0.00 | 0.00 | 0.00 | 62 | 1014.1 |
| 20260503030218 | 48 | 323 | 0.0 | 1.0 | 0.00 | 0.00 | 0.00 | 62 | 1014.1 |
| 20260503025717 | 48 | 323 | 0.0 | 1.0 | 0.00 | 0.00 | 0.00 | 62 | 1014.0 |
| 20260503025217 | 49 | 323 | 0.0 | 1.0 | 0.00 | 0.00 | 0.00 | 62 | 1014.1 |
| 20260503024718 | 49 | 323 | 0.0 | 2.0 | 0.00 | 0.00 | 0.00 | 62 | 1014.0 |
| 20260503024218 | 49 | 323 | 0.0 | 2.0 | 0.00 | 0.00 | 0.00 | 61 | 1014.1 |
| 20260503023718 | 49 | 323 | 0.0 | 2.0 | 0.00 | 0.00 | 0.00 | 61 | 1014.1 |
| 20260503023218 | 49 | 323 | 0.0 | 1.0 | 0.00 | 0.00 | 0.00 | 62 | 1014.1 |
| 20260503022718 | 49 | 323 | 0.0 | 1.0 | 0.00 | 0.00 | 0.00 | 62 | 1014.1 |
| 20260503022217 | 48 | 323 | 0.0 | 1.0 | 0.00 | 0.00 | 0.00 | 63 | 1014.1 |
| 20260503021717 | 48 | 323 | 0.0 | 2.0 | 0.00 | 0.00 | 0.00 | 64 | 1014.1 |
| 20260503021219 | 48 | 323 | 0.0 | 2.0 | 0.00 | 0.00 | 0.00 | 69 | 1013.9 |
| 20260503020718 | 48 | 323 | 0.0 | 0.0 | 0.00 | 0.00 | 0.00 | 69 | 1013.9 |
| 20260503020218 | 48 | 323 | 0.0 | 0.0 | 0.00 | 0.00 | 0.00 | 68 | 1013.9 |
| 20260503015718 | 48 | 323 | 0.0 | 1.0 | 0.00 | 0.00 | 0.00 | 67 | 1013.9 |
| 20260503015217 | 48 | 323 | 0.0 | 1.0 | 0.00 | 0.00 | 0.00 | 69 | 1013.7 |
| 20260503014720 | 48 | 323 | 0.0 | 1.0 | 0.00 | 0.00 | 0.00 | 68 | 1013.7 |
| 20260503014219 | 48 | 323 | 0.0 | 0.0 | 0.00 | 0.00 | 0.00 | 67 | 1013.7 |
| 20260503013718 | 48 | 323 | 0.0 | 0.0 | 0.00 | 0.00 | 0.00 | 67 | 1013.6 |
| 20260503013218 | 48 | 323 | 0.0 | 0.0 | 0.00 | 0.00 | 0.00 | 66 | 1013.5 |
| 20260503012718 | 48 | 323 | 0.0 | 0.0 | 0.00 | 0.00 | 0.00 | 69 | 1013.5 |
| 20260503012221 | 49 | 323 | 0.0 | 1.0 | 0.00 | 0.00 | 0.00 | 70 | 1013.4 |
| 20260503011721 | 49 | 323 | 0.0 | 1.0 | 0.00 | 0.00 | 0.00 | 66 | 1013.4 |
| 20260503011221 | 49 | 323 | 0.0 | 0.0 | 0.00 | 0.00 | 0.00 | 66 | 1013.3 |
| 20260503010721 | 49 | 323 | 0.0 | 0.0 | 0.00 | 0.00 | 0.00 | 65 | 1013.3 |
| 20260503010220 | 49 | 323 | 0.0 | 0.0 | 0.00 | 0.00 | 0.00 | 66 | 1013.1 |
| 20260503005720 | 50 | 323 | 0.0 | 0.0 | 0.00 | 0.00 | 0.00 | 65 | 1013.1 |
| 20260503005220 | 50 | 323 | 0.0 | 0.0 | 0.00 | 0.00 | 0.00 | 64 | 1013.0 |
| 20260503004721 | 50 | 323 | 0.0 | 0.0 | 0.00 | 0.00 | 0.00 | 64 | 1013.0 |
| 20260503004221 | 51 | 323 | 0.0 | 0.0 | 0.00 | 0.00 | 0.00 | 62 | 1013.0 |
| 20260503003721 | 51 | 323 | 0.0 | 0.0 | 0.00 | 0.00 | 0.00 | 63 | 1012.9 |
| 20260503003223 | 51 | 323 | 0.0 | 0.0 | 0.00 | 0.00 | 0.00 | 63 | 1012.8 |
| 20260503002718 | 52 | 323 | 0.0 | 0.0 | 0.00 | 0.00 | 0.00 | 58 | 1012.8 |
| 20260503002219 | 52 | 323 | 0.0 | 0.0 | 0.00 | 0.00 | 0.00 | 55 | 1012.7 |
| 20260503001717 | 52 | 323 | 0.0 | 0.0 | 0.00 | 0.00 | 0.00 | 55 | 1012.6 |
| 20260503001217 | 52 | 323 | 0.0 | 0.0 | 0.00 | 0.00 | 0.00 | 55 | 1012.6 |
| 20260503000718 | 53 | 323 | 0.0 | 0.0 | 0.00 | 0.00 | 0.00 | 55 | 1012.7 |
| 20260503000218 | 53 | 323 | 0.0 | 0.0 | 0.00 | 0.00 | 0.00 | 54 | 1012.6 |
| 20260502235718 | 53 | 323 | 0.0 | 0.0 | 0.00 | 0.00 | 0.00 | 53 | 1012.6 |
| 20260502235217 | 53 | 323 | 0.0 | 0.0 | 0.00 | 0.00 | 0.00 | 53 | 1012.6 |
| 20260502234719 | 53 | 323 | 0.0 | 0.0 | 0.00 | 0.00 | 0.00 | 53 | 1012.4 |
| 20260502234217 | 53 | 323 | 0.0 | 0.0 | 0.00 | 0.00 | 0.00 | 53 | 1012.4 |
| 20260502233719 | 54 | 323 | 0.0 | 0.0 | 0.00 | 0.00 | 0.00 | 52 | 1012.4 |
| 20260502233218 | 54 | 323 | 0.0 | 0.0 | 0.00 | 0.00 | 0.00 | 52 | 1012.4 |
| 20260502232719 | 54 | 323 | 0.0 | 0.0 | 0.00 | 0.00 | 0.00 | 52 | 1012.3 |
| 20260502232217 | 54 | 323 | 0.0 | 3.0 | 0.00 | 0.00 | 0.00 | 52 | 1012.4 |
| 20260502231718 | 54 | 323 | 0.0 | 3.0 | 0.00 | 0.00 | 0.00 | 51 | 1012.4 |
| 20260502231218 | 54 | 323 | 1.0 | 3.0 | 0.00 | 0.00 | 0.00 | 51 | 1012.3 |
| 20260502230717 | 54 | 309 | 0.0 | 2.0 | 0.00 | 0.00 | 0.00 | 51 | 1012.3 |
| 20260502230217 | 54 | 309 | 0.0 | 2.0 | 0.00 | 0.00 | 0.00 | 50 | 1012.3 |
| 20260502225718 | 54 | 309 | 0.0 | 2.0 | 0.00 | 0.00 | 0.00 | 51 | 1012.3 |
| 20260502225217 | 54 | 309 | 0.0 | 2.0 | 0.00 | 0.00 | 0.00 | 51 | 1012.2 |
| 20260502224717 | 54 | 309 | 0.0 | 0.0 | 0.00 | 0.00 | 0.00 | 51 | 1012.2 |
| 20260502224217 | 54 | 309 | 0.0 | 2.0 | 0.00 | 0.00 | 0.00 | 49 | 1012.2 |
| 20260502223717 | 54 | 309 | 0.0 | 2.0 | 0.00 | 0.00 | 0.00 | 49 | 1012.1 |
| 20260502223218 | 55 | 309 | 0.0 | 2.0 | 0.00 | 0.00 | 0.00 | 49 | 1012.2 |
| 20260502222718 | 55 | 309 | 0.0 | 3.0 | 0.00 | 0.00 | 0.00 | 48 | 1012.1 |
| 20260502222218 | 55 | 309 | 1.0 | 3.0 | 0.00 | 0.00 | 0.00 | 48 | 1012.2 |
| 20260502221719 | 55 | 309 | 0.0 | 3.0 | 0.00 | 0.00 | 0.00 | 49 | 1012.2 |
| 20260502221217 | 55 | 309 | 1.0 | 3.0 | 0.00 | 0.00 | 0.00 | 47 | 1012.1 |
| 20260502220719 | 55 | 306 | 1.0 | 3.0 | 0.00 | 0.00 | 0.00 | 47 | 1012.1 |
| 20260502220217 | 55 | 318 | 0.0 | 3.0 | 0.00 | 0.00 | 0.00 | 49 | 1012.1 |
| 20260502215718 | 55 | 318 | 0.0 | 3.0 | 0.00 | 0.00 | 0.00 | 47 | 1012.1 |
| 20260502215219 | 55 | 318 | 0.0 | 3.0 | 0.00 | 0.00 | 0.00 | 47 | 1012.1 |
| 20260502214718 | 56 | 336 | 0.0 | 5.0 | 0.00 | 0.00 | 0.00 | 46 | 1012.0 |
| 20260502214218 | 56 | 302 | 1.0 | 5.0 | 0.00 | 0.00 | 0.00 | 46 | 1012.1 |
| 20260502213717 | 56 | 313 | 2.0 | 5.0 | 0.00 | 0.00 | 0.00 | 44 | 1012.0 |
| 20260502213219 | 56 | 306 | 2.0 | 5.0 | 0.00 | 0.00 | 0.00 | 46 | 1012.0 |
| 20260502212720 | 56 | 327 | 0.0 | 5.0 | 0.00 | 0.00 | 0.00 | 46 | 1012.0 |
| 20260502212221 | 56 | 310 | 0.0 | 2.0 | 0.00 | 0.00 | 0.00 | 46 | 1012.0 |
| 20260502211721 | 56 | 310 | 1.0 | 2.0 | 0.00 | 0.00 | 0.00 | 44 | 1012.0 |
| 20260502211220 | 56 | 310 | 0.0 | 3.0 | 0.00 | 0.00 | 0.00 | 47 | 1011.9 |
| 20260502210721 | 56 | 310 | 0.0 | 3.0 | 0.00 | 0.00 | 0.00 | 47 | 1011.8 |
| 20260502210221 | 56 | 310 | 1.0 | 3.0 | 0.00 | 0.00 | 0.00 | 45 | 1011.8 |
| 20260502205721 | 56 | 310 | 0.0 | 3.0 | 0.00 | 0.00 | 0.00 | 45 | 1011.8 |
| 20260502205221 | 56 | 310 | 1.0 | 3.0 | 0.00 | 0.00 | 0.00 | 42 | 1011.8 |
| 20260502204721 | 56 | 311 | 1.0 | 3.0 | 0.00 | 0.00 | 0.00 | 45 | 1011.8 |
| 20260502204221 | 56 | 310 | 0.0 | 3.0 | 0.00 | 0.00 | 0.00 | 46 | 1011.8 |
| 20260502203722 | 56 | 310 | 1.0 | 3.0 | 0.00 | 0.00 | 0.00 | 43 | 1011.8 |
| 20260502203221 | 56 | 310 | 1.0 | 3.0 | 0.00 | 0.00 | 0.00 | 47 | 1011.8 |
| 20260502202722 | 57 | 310 | 0.0 | 3.0 | 0.00 | 0.00 | 0.00 | 43 | 1011.7 |
| 20260502202505 | 57 | 310 | 1.0 | 3.0 | 0.00 | 0.00 | 0.00 | 45 | 1011.8 |
| 20260502202003 | 57 | 310 | 2.0 | 5.0 | 0.00 | 0.00 | 0.00 | 44 | 1011.7 |
| 20260502201504 | 57 | 331 | 1.0 | 5.0 | 0.00 | 0.00 | 0.00 | 43 | 1011.7 |
| 20260502201003 | 57 | 310 | 1.0 | 3.0 | 0.00 | 0.00 | 0.00 | 46 | 1011.7 |
| 20260502200221 | 57 | 297 | 1.0 | 3.0 | 0.00 | 0.00 | 0.00 | 45 | 1011.8 |
| 20260502195720 | 57 | 222 | 1.0 | 3.0 | 0.00 | 0.00 | 0.00 | 45 | 1011.9 |
| 20260502195221 | 57 | 334 | 0.0 | 3.0 | 0.00 | 0.00 | 0.00 | 45 | 1011.9 |
| 20260502194721 | 57 | 334 | 1.0 | 5.0 | 0.00 | 0.00 | 0.00 | 46 | 1011.9 |
| 20260502194222 | 57 | 334 | 1.0 | 5.0 | 0.00 | 0.00 | 0.00 | 42 | 1012.0 |
| 20260502193721 | 58 | 309 | 2.0 | 5.0 | 0.00 | 0.00 | 0.00 | 47 | 1012.1 |
| 20260502193221 | 58 | 337 | 1.0 | 3.0 | 0.00 | 0.00 | 0.00 | 45 | 1012.4 |
| 20260502192718 | 58 | 329 | 1.0 | 3.0 | 0.00 | 0.00 | 0.00 | 44 | 1012.4 |
| 20260502192218 | 58 | 326 | 1.0 | 3.0 | 0.00 | 0.00 | 0.00 | 43 | 1012.5 |
| 20260502191718 | 58 | 320 | 1.0 | 3.0 | 0.00 | 0.00 | 0.00 | 45 | 1012.6 |
| 20260502191217 | 58 | 336 | 1.0 | 3.0 | 0.00 | 0.00 | 0.00 | 44 | 1012.7 |
| 20260502190718 | 58 | 336 | 0.0 | 3.0 | 0.00 | 0.00 | 0.00 | 46 | 1012.7 |
| 20260502190218 | 59 | 342 | 0.0 | 3.0 | 0.00 | 0.00 | 0.00 | 44 | 1012.7 |
| 20260502185717 | 59 | 31 | 2.0 | 3.0 | 0.00 | 0.00 | 0.00 | 48 | 1012.8 |
| 20260502185218 | 58 | 42 | 2.0 | 3.0 | 0.00 | 0.00 | 0.00 | 44 | 1012.9 |
| 20260502184718 | 57 | 145 | 1.0 | 3.0 | 0.00 | 0.00 | 0.00 | 47 | 1013.1 |